This is the latest recevied weather packets stored in our database for station/object K5YNC. If no packets are shown the sender has not sent any weather packets the latest 10 day(s).
| Time | Temp. | Humidity | Pressure | Rain* | Wind** | Luminosity | Snow |
|---|---|---|---|---|---|---|---|
| 1777857610 | 20.56° C | 51% | 1016.6 hPa | 0 mm | - | 1 W/m² | - |
| 1777857306 | 21.11° C | 49% | 1016.5 hPa | 0 mm | - | 3 W/m² | - |
| 1777857001 | 21.67° C | 48% | 1016.4 hPa | 0 mm | - | 5 W/m² | - |
| 1777856698 | 21.67° C | 46% | 1016.3 hPa | 0 mm | - | 7 W/m² | - |
| 1777856394 | 22.22° C | 45% | 1016.4 hPa | 0 mm | - | 11 W/m² | - |
| 1777856091 | 22.78° C | 44% | 1016.4 hPa | 0 mm | - | 13 W/m² | - |
| 1777855788 | 22.78° C | 43% | 1016.3 hPa | 0 mm | - | 16 W/m² | - |
| 1777855486 | 23.33° C | 41% | 1016.4 hPa | 0 mm | - | 18 W/m² | - |
| 1777855183 | 23.89° C | 40% | 1016.2 hPa | 0 mm | - | 21 W/m² | - |
| 1777854879 | 23.89° C | 40% | 1016.3 hPa | 0 mm | - | 24 W/m² | - |
| 1777854576 | 23.89° C | 38% | 1016.5 hPa | 0 mm | - | 29 W/m² | - |
| 1777854273 | 24.44° C | 38% | 1016.5 hPa | 0 mm | - | 32 W/m² | - |
| 1777853970 | 24.44° C | 37% | 1016.5 hPa | 0 mm | - | 31 W/m² | - |
| 1777853667 | 24.44° C | 36% | 1016.7 hPa | 0 mm | - | 30 W/m² | - |
| 1777853364 | 24.44° C | 36% | 1016.7 hPa | 0 mm | - | 30 W/m² | - |
| 1777853061 | 25° C | 37% | 1016.6 hPa | 0 mm | - | 34 W/m² | - |
| 1777852759 | 25° C | 36% | 1016.7 hPa | 0 mm | - | 37 W/m² | - |
| 1777852456 | 25° C | 35% | 1016.7 hPa | 0 mm | - | 39 W/m² | - |
| 1777852154 | 25° C | 35% | 1016.7 hPa | 0 mm | - | 35 W/m² | - |
| 1777851851 | 25.56° C | 34% | 1016.8 hPa | 0 mm | - | 32 W/m² | - |
| 1777851549 | 25.56° C | 34% | 1016.6 hPa | 0 mm | - | 35 W/m² | - |
| 1777851245 | 25.56° C | 35% | 1016.8 hPa | 0 mm | - | 42 W/m² | - |
| 1777850941 | 25.56° C | 34% | 1016.7 hPa | 0 mm | - | 42 W/m² | - |
| 1777850639 | 25.56° C | 33% | 1016.8 hPa | 0 mm | - | 39 W/m² | - |
| 1777850336 | 26.11° C | 33% | 1016.9 hPa | 0 mm | - | 38 W/m² | - |
* Rain latest hour (hover to see other rain measurements)
** Current wind speed in m/s (hover to see current wind gust speed)